Tracking 35280 objects as of 7-Sep-2026
HD Live streaming from Space Station
objects crossing your sky now

STARLINK-1192


STARLINK-1192 is no longer on orbit
STARLINK-1192 is classified as:


NORAD ID: 45180
Int'l Code: 2020-012C
Launch date: February 17, 2020
Source: United States (US)
Launch site: AIR FORCE EASTERN TEST RANGE (AFETR)
Decay date: 2023-10-06
Your satellite tracking list
Your tracking list is empty




NASA's NSSDC Master Catalog

Two Line Element Set (TLE):
1 45180U 20012C   23279.08557972  .22107216  12697-4  15470-2 0  9998
2 45180  52.9727 352.6586 0026615  31.2899  36.8838 16.38040394201680
Source of the keplerian elements: AFSPC